Time,TemperatureF,DewpointF,PressureIn,WindDirection,WindDirectionDegrees,WindSpeedMPH,WindSpeedGustMPH,Humidity,HourlyPrecipIn,Conditions,Clouds,dailyrainin,SoftwareType,DateUTC
2013-07-15 00:00:00,75.6,67.5,30.32,ESE,113,0.0,0.0,76,0.00,,,0.08,WUHU216HW,2013-07-15 04:00:00,
2013-07-15 00:01:00,75.6,67.5,30.32,ESE,113,0.0,0.0,76,0.00,,,0.08,WUHU216HW,2013-07-15 04:01:00,
2013-07-15 00:06:00,75.6,67.5,30.32,ESE,113,0.0,0.0,76,0.00,,,0.08,WUHU216HW,2013-07-15 04:06:00,
2013-07-15 00:29:00,74.7,67.4,30.31,ESE,113,0.0,0.0,78,0.00,,,0.00,WUHU216HW,2013-07-15 04:29:00,
2013-07-15 00:30:00,74.7,67.4,30.31,ESE,113,0.0,0.0,78,0.00,,,0.00,WUHU216HW,2013-07-15 04:30:00,
2013-07-15 00:35:00,74.7,67.4,30.31,ESE,113,0.0,0.0,78,0.00,,,0.00,WUHU216HW,2013-07-15 04:35:00,
2013-07-15 01:00:00,74.9,67.2,30.31,ESE,113,0.0,0.0,77,0.00,,,0.00,WUHU216HW,2013-07-15 05:00:00,
2013-07-15 01:05:00,74.9,67.2,30.31,ESE,113,0.0,0.0,77,0.00,,,0.00,WUHU216HW,2013-07-15 05:05:00,
2013-07-15 01:29:00,74.7,67.1,30.32,ESE,113,0.0,0.0,77,0.00,,,0.00,WUHU216HW,2013-07-15 05:29:00,
2013-07-15 01:30:00,74.7,67.1,30.32,ESE,113,0.0,0.0,77,0.00,,,0.00,WUHU216HW,2013-07-15 05:30:00,
2013-07-15 01:35:00,74.7,67.1,30.32,ESE,113,0.0,0.0,77,0.00,,,0.00,WUHU216HW,2013-07-15 05:35:00,
2013-07-15 02:00:00,74.0,66.3,30.32,ESE,113,0.0,0.0,77,0.00,,,0.00,WUHU216HW,2013-07-15 06:00:00,
2013-07-15 02:05:00,74.0,66.3,30.32,ESE,113,0.0,0.0,77,0.00,,,0.00,WUHU216HW,2013-07-15 06:05:00,
2013-07-15 02:30:00,73.6,66.4,30.32,ESE,113,0.0,0.0,78,0.00,,,0.00,WUHU216HW,2013-07-15 06:30:00,
2013-07-15 02:35:00,73.6,66.4,30.32,ESE,113,0.0,0.0,78,0.00,,,0.00,WUHU216HW,2013-07-15 06:35:00,
2013-07-15 03:00:00,72.9,65.7,30.31,ESE,113,0.0,0.0,78,0.00,,,0.00,WUHU216HW,2013-07-15 07:00:00,
2013-07-15 03:05:00,72.9,65.7,30.31,ESE,113,0.0,0.0,78,0.00,,,0.00,WUHU216HW,2013-07-15 07:05:00,
2013-07-15 03:29:00,72.7,65.5,30.31,ESE,113,0.0,0.0,78,0.00,,,0.00,WUHU216HW,2013-07-15 07:29:00,
2013-07-15 03:30:00,72.7,65.5,30.31,ESE,113,0.0,0.0,78,0.00,,,0.00,WUHU216HW,2013-07-15 07:30:00,
2013-07-15 03:35:00,72.7,65.5,30.31,ESE,113,0.0,0.0,78,0.00,,,0.00,WUHU216HW,2013-07-15 07:35:00,
2013-07-15 04:00:00,72.4,64.7,30.31,ESE,113,0.0,0.0,77,0.00,,,0.00,WUHU216HW,2013-07-15 08:00:00,
2013-07-15 04:05:00,72.4,64.7,30.31,ESE,113,0.0,0.0,77,0.00,,,0.00,WUHU216HW,2013-07-15 08:05:00,
2013-07-15 04:30:00,72.4,64.7,30.31,ESE,113,0.0,0.0,77,0.00,,,0.00,WUHU216HW,2013-07-15 08:30:00,
2013-07-15 04:35:00,72.4,64.7,30.31,ESE,113,0.0,0.0,77,0.00,,,0.00,WUHU216HW,2013-07-15 08:35:00,
2013-07-15 05:00:00,72.7,65.5,30.31,ESE,113,0.0,0.0,78,0.00,,,0.00,WUHU216HW,2013-07-15 09:00:00,
2013-07-15 05:05:00,72.7,65.5,30.31,ESE,113,0.0,0.0,78,0.00,,,0.00,WUHU216HW,2013-07-15 09:05:00,
2013-07-15 05:30:00,72.5,65.4,30.31,ESE,113,0.0,0.0,78,0.00,,,0.00,WUHU216HW,2013-07-15 09:30:00,
2013-07-15 05:35:00,72.5,65.4,30.31,ESE,113,0.0,0.0,78,0.00,,,0.00,WUHU216HW,2013-07-15 09:35:00,
2013-07-15 06:00:00,72.0,64.8,30.32,ESE,113,0.0,0.0,78,0.00,,,0.00,WUHU216HW,2013-07-15 10:00:00,
2013-07-15 06:05:00,72.0,64.8,30.32,ESE,113,0.0,0.0,78,0.00,,,0.00,WUHU216HW,2013-07-15 10:05:00,
2013-07-15 06:30:00,70.7,63.6,30.33,ESE,113,0.0,0.0,78,0.00,,,0.00,WUHU216HW,2013-07-15 10:30:00,
2013-07-15 06:35:00,70.7,63.6,30.33,ESE,113,0.0,0.0,78,0.00,,,0.00,WUHU216HW,2013-07-15 10:35:00,
2013-07-15 07:00:00,70.7,63.6,30.33,ESE,113,0.0,0.0,78,0.00,,,0.00,WUHU216HW,2013-07-15 11:00:00,
2013-07-15 07:05:00,70.7,63.6,30.33,ESE,113,0.0,0.0,78,0.00,,,0.00,WUHU216HW,2013-07-15 11:05:00,
2013-07-15 07:30:00,71.1,63.9,30.33,ESE,113,0.0,0.0,78,0.00,,,0.00,WUHU216HW,2013-07-15 11:30:00,
2013-07-15 07:35:00,71.1,63.9,30.33,ESE,113,0.0,0.0,78,0.00,,,0.00,WUHU216HW,2013-07-15 11:35:00,
2013-07-15 08:00:00,72.2,65.4,30.34,ESE,113,0.0,0.0,79,0.00,,,0.00,WUHU216HW,2013-07-15 12:00:00,
2013-07-15 08:05:00,72.2,65.4,30.34,ESE,113,0.0,0.0,79,0.00,,,0.00,WUHU216HW,2013-07-15 12:05:00,
2013-07-15 08:30:00,73.4,66.6,30.33,ESE,113,0.0,0.0,79,0.00,,,0.00,WUHU216HW,2013-07-15 12:30:00,
2013-07-15 08:35:00,73.4,66.6,30.33,ESE,113,0.0,0.0,79,0.00,,,0.00,WUHU216HW,2013-07-15 12:35:00,
2013-07-15 09:00:00,74.7,68.2,30.35,SSE,158,0.0,0.0,80,0.00,,,0.00,WUHU216HW,2013-07-15 13:00:00,
2013-07-15 09:05:00,74.7,68.2,30.35,SSE,158,0.0,0.0,80,0.00,,,0.00,WUHU216HW,2013-07-15 13:05:00,
2013-07-15 09:30:00,76.7,70.0,30.34,SE,135,0.0,0.0,80,0.00,,,0.00,WUHU216HW,2013-07-15 13:30:00,
2013-07-15 09:35:00,76.7,70.0,30.34,SE,135,0.0,0.0,80,0.00,,,0.00,WUHU216HW,2013-07-15 13:35:00,
2013-07-15 09:59:00,77.4,70.0,30.34,South,180,0.8,0.8,78,0.00,,,0.00,WUHU216HW,2013-07-15 13:59:00,
2013-07-15 10:00:00,77.4,70.0,30.34,South,180,0.8,0.8,78,0.00,,,0.00,WUHU216HW,2013-07-15 14:00:00,
2013-07-15 10:05:00,77.4,70.0,30.34,South,180,0.8,0.8,78,0.00,,,0.00,WUHU216HW,2013-07-15 14:05:00,
2013-07-15 10:30:00,80.5,71.5,30.34,NNW,338,0.4,0.4,74,0.00,,,0.00,WUHU216HW,2013-07-15 14:30:00,
2013-07-15 10:35:00,80.5,71.5,30.34,NNW,338,0.4,0.4,74,0.00,,,0.00,WUHU216HW,2013-07-15 14:35:00,
2013-07-15 11:00:00,81.0,71.6,30.35,East,90,0.0,0.0,73,0.00,,,0.00,WUHU216HW,2013-07-15 15:00:00,
2013-07-15 11:05:00,81.0,71.6,30.35,East,90,0.0,0.0,73,0.00,,,0.00,WUHU216HW,2013-07-15 15:05:00,
2013-07-15 11:30:00,82.8,71.6,30.34,ENE,68,2.2,2.2,69,0.00,,,0.00,WUHU216HW,2013-07-15 15:30:00,
2013-07-15 11:35:00,82.8,71.6,30.34,ENE,68,2.2,2.2,69,0.00,,,0.00,WUHU216HW,2013-07-15 15:35:00,
2013-07-15 11:59:00,84.1,71.9,30.34,ESE,113,0.4,0.4,67,0.00,,,0.00,WUHU216HW,2013-07-15 15:59:00,
2013-07-15 12:00:00,84.1,71.9,30.34,ESE,113,0.4,0.4,67,0.00,,,0.00,WUHU216HW,2013-07-15 16:00:00,
2013-07-15 12:05:00,84.1,71.9,30.34,ESE,113,0.4,0.4,67,0.00,,,0.00,WUHU216HW,2013-07-15 16:05:00,
2013-07-15 12:30:00,85.3,72.7,30.34,SSW,203,0.4,0.4,66,0.00,,,0.00,WUHU216HW,2013-07-15 16:30:00,
2013-07-15 12:35:00,85.3,72.7,30.34,SSW,203,0.4,0.4,66,0.00,,,0.00,WUHU216HW,2013-07-15 16:35:00,
2013-07-15 12:59:00,85.5,71.5,30.33,SW,225,0.8,0.8,63,0.00,,,0.00,WUHU216HW,2013-07-15 16:59:00,
2013-07-15 13:00:00,85.5,71.5,30.33,SW,225,0.8,0.8,63,0.00,,,0.00,WUHU216HW,2013-07-15 17:00:00,
2013-07-15 13:05:00,85.5,71.5,30.33,SW,225,0.8,0.8,63,0.00,,,0.00,WUHU216HW,2013-07-15 17:05:00,
2013-07-15 13:30:00,86.6,71.1,30.32,SW,225,0.8,0.8,60,0.00,,,0.00,WUHU216HW,2013-07-15 17:30:00,
2013-07-15 13:35:00,86.6,71.1,30.32,SW,225,0.8,0.8,60,0.00,,,0.00,WUHU216HW,2013-07-15 17:35:00,
2013-07-15 13:59:00,87.5,72.0,30.32,ESE,113,0.0,0.0,60,0.00,,,0.00,WUHU216HW,2013-07-15 17:59:00,
2013-07-15 14:00:00,87.5,72.0,30.32,ESE,113,0.0,0.0,60,0.00,,,0.00,WUHU216HW,2013-07-15 18:00:00,
2013-07-15 14:05:00,87.5,72.0,30.32,ESE,113,0.0,0.0,60,0.00,,,0.00,WUHU216HW,2013-07-15 18:05:00,
2013-07-15 14:29:00,88.2,71.1,30.30,SSE,158,1.4,1.4,57,0.00,,,0.00,WUHU216HW,2013-07-15 18:29:00,
2013-07-15 14:30:00,88.2,71.1,30.30,SSE,158,1.4,1.4,57,0.00,,,0.00,WUHU216HW,2013-07-15 18:30:00,
2013-07-15 14:35:00,88.2,71.1,30.30,SSE,158,1.4,1.4,57,0.00,,,0.00,WUHU216HW,2013-07-15 18:35:00,
2013-07-15 14:59:00,88.2,71.7,30.30,NE,45,0.8,0.8,58,0.00,,,0.00,WUHU216HW,2013-07-15 18:59:00,
2013-07-15 15:00:00,88.2,71.7,30.30,NE,45,0.8,0.8,58,0.00,,,0.00,WUHU216HW,2013-07-15 19:00:00,
2013-07-15 15:05:00,88.2,71.7,30.30,NE,45,0.8,0.8,58,0.00,,,0.00,WUHU216HW,2013-07-15 19:05:00,
2013-07-15 15:29:00,88.0,70.9,30.30,ENE,68,0.0,0.0,57,0.00,,,0.00,WUHU216HW,2013-07-15 19:29:00,
2013-07-15 15:30:00,88.0,70.9,30.30,ENE,68,0.0,0.0,57,0.00,,,0.00,WUHU216HW,2013-07-15 19:30:00,
2013-07-15 15:35:00,88.0,70.9,30.30,ENE,68,0.0,0.0,57,0.00,,,0.00,WUHU216HW,2013-07-15 19:35:00,
2013-07-15 15:59:00,88.2,71.7,30.29,SSW,203,0.0,0.0,58,0.00,,,0.00,WUHU216HW,2013-07-15 19:59:00,
2013-07-15 16:00:00,88.2,71.7,30.29,SSW,203,0.0,0.0,58,0.00,,,0.00,WUHU216HW,2013-07-15 20:00:00,
2013-07-15 16:05:00,88.2,71.7,30.29,SSW,203,0.0,0.0,58,0.00,,,0.00,WUHU216HW,2013-07-15 20:05:00,
2013-07-15 16:30:00,87.7,71.1,30.29,ENE,68,0.0,0.0,58,0.00,,,0.00,WUHU216HW,2013-07-15 20:30:00,
2013-07-15 16:35:00,87.5,70.9,30.29,ENE,68,0.0,0.8,58,0.00,,,0.00,WUHU216HW,2013-07-15 20:35:00,
2013-07-15 16:40:00,87.7,71.1,30.29,ENE,68,0.4,1.4,58,0.00,,,0.00,WUHU216HW,2013-07-15 20:40:00,
2013-07-15 16:45:00,87.8,71.3,30.29,SE,135,0.8,1.4,58,0.00,,,0.00,WUHU216HW,2013-07-15 20:45:00,
2013-07-15 16:50:00,87.5,70.9,30.29,SE,135,0.0,1.4,58,0.00,,,0.00,WUHU216HW,2013-07-15 20:50:00,
2013-07-15 16:55:00,87.3,70.7,30.29,SE,135,0.0,1.4,58,0.00,,,0.00,WUHU216HW,2013-07-15 20:55:00,
2013-07-15 17:00:00,86.9,70.9,30.28,SE,135,0.0,0.0,59,0.00,,,0.00,WUHU216HW,2013-07-15 21:00:00,
2013-07-15 17:06:00,86.9,70.9,30.28,SE,135,0.0,0.0,59,0.00,,,0.00,WUHU216HW,2013-07-15 21:06:00,
2013-07-15 17:30:00,87.3,71.3,30.28,SSW,203,0.4,0.4,59,0.00,,,0.00,WUHU216HW,2013-07-15 21:30:00,
2013-07-15 17:35:00,87.3,71.3,30.28,SSW,203,0.4,0.4,59,0.00,,,0.00,WUHU216HW,2013-07-15 21:35:00,
2013-07-15 18:00:00,86.0,71.5,30.28,SSW,203,0.0,0.0,62,0.00,,,0.00,WUHU216HW,2013-07-15 22:00:00,
2013-07-15 18:05:00,86.0,71.5,30.28,SSW,203,0.0,0.0,62,0.00,,,0.00,WUHU216HW,2013-07-15 22:05:00,
2013-07-15 18:30:00,85.5,71.0,30.28,SSW,203,0.0,0.0,62,0.00,,,0.00,WUHU216HW,2013-07-15 22:30:00,
2013-07-15 18:35:00,85.5,71.0,30.28,SSW,203,0.0,0.0,62,0.00,,,0.00,WUHU216HW,2013-07-15 22:35:00,
2013-07-15 19:00:00,84.6,70.7,30.28,SSW,203,0.0,0.0,63,0.00,,,0.00,WUHU216HW,2013-07-15 23:00:00,
2013-07-15 19:05:00,84.6,70.7,30.28,SSW,203,0.0,0.0,63,0.00,,,0.00,WUHU216HW,2013-07-15 23:05:00,
2013-07-15 19:30:00,84.4,70.9,30.28,SSW,203,0.0,0.0,64,0.00,,,0.00,WUHU216HW,2013-07-15 23:30:00,
2013-07-15 19:35:00,84.4,70.9,30.28,SSW,203,0.0,0.0,64,0.00,,,0.00,WUHU216HW,2013-07-15 23:35:00,
2013-07-15 20:00:00,83.5,71.4,30.28,SSW,203,0.0,0.0,67,0.00,,,0.00,WUHU216HW,2013-07-16 00:00:00,
2013-07-15 20:06:00,83.5,71.4,30.28,SSW,203,0.0,0.0,67,0.00,,,0.00,WUHU216HW,2013-07-16 00:06:00,
2013-07-15 20:30:00,83.0,70.8,30.28,SSW,203,0.0,0.0,67,0.00,,,0.00,WUHU216HW,2013-07-16 00:30:00,
2013-07-15 20:35:00,83.0,70.8,30.28,SSW,203,0.0,0.0,67,0.00,,,0.00,WUHU216HW,2013-07-16 00:35:00,
2013-07-15 21:00:00,81.5,69.0,30.28,SSW,203,0.0,0.0,66,0.00,,,0.00,WUHU216HW,2013-07-16 01:00:00,
2013-07-15 21:05:00,81.5,69.0,30.28,SSW,203,0.0,0.0,66,0.00,,,0.00,WUHU216HW,2013-07-16 01:05:00,
2013-07-15 21:30:00,80.3,70.0,30.28,SSW,203,0.0,0.0,71,0.00,,,0.00,WUHU216HW,2013-07-16 01:30:00,
2013-07-15 21:35:00,80.3,70.0,30.28,SSW,203,0.0,0.0,71,0.00,,,0.00,WUHU216HW,2013-07-16 01:35:00,
2013-07-15 22:00:00,79.9,69.7,30.29,SSW,203,0.0,0.0,71,0.00,,,0.00,WUHU216HW,2013-07-16 02:00:00,
2013-07-15 22:05:00,79.9,69.7,30.29,SSW,203,0.0,0.0,71,0.00,,,0.00,WUHU216HW,2013-07-16 02:05:00,
2013-07-15 22:30:00,78.5,69.0,30.29,SSW,203,0.0,0.0,73,0.00,,,0.00,WUHU216HW,2013-07-16 02:30:00,
2013-07-15 22:35:00,78.5,69.0,30.29,SSW,203,0.0,0.0,73,0.00,,,0.00,WUHU216HW,2013-07-16 02:35:00,
2013-07-15 23:00:00,78.1,68.8,30.29,SSW,203,0.0,0.0,73,0.00,,,0.00,WUHU216HW,2013-07-16 03:00:00,
2013-07-15 23:05:00,78.1,68.8,30.29,SSW,203,0.0,0.0,73,0.00,,,0.00,WUHU216HW,2013-07-16 03:05:00,
2013-07-15 23:30:00,77.6,69.0,30.29,SSW,203,0.0,0.0,75,0.00,,,0.00,WUHU216HW,2013-07-16 03:30:00,
2013-07-15 23:35:00,77.6,69.0,30.29,SSW,203,0.0,0.0,75,0.00,,,0.00,WUHU216HW,2013-07-16 03:35:00,
2013-07-15 23:59:00,77.2,68.3,30.29,SSW,203,0.0,0.0,74,0.00,,,0.00,WUHU216HW,2013-07-16 03:59:00,